EHI
12 13 12 11 11 11 11 10 11 12 12 12 12 13 13 13 13 12 10 7 6 6 6 6 7 9 7 6 5 4 5 6 4 3 5 8 8 6 2 2 2 1 0
12 13 13 11 11 11 11 10 11 12 12 11 12 13 13 13 13 13 11 8 7 7 7 6 6 6 6 6 5 4 4 5 4 4 6 8 7 5 3 2 2 1 0
11 13 13 12 11 11 11 9 10 11 12 12 13 14 13 12 12 13 12 10 9 8 7 5 3 3 5 6 5 4 3 3 4 4 5 5 4 3 3 3 3 3 2
11 12 12 11 12 11 10 8 8 10 11 13 15 14 12 11 10 10 10 10 8 6 4 3 1 1 4 5 4 4 3 3 3 3 3 2 1 1 1 2 3 4 4
11 11 11 11 12 12 10 9 9 9 11 13 14 13 11 9 8 7 7 7 6 3 1 1 0 1 2 3 2 2 3 2 2 3 3 2 1 0 1 1 2 3 3
10 11 11 11 12 12 10 10 9 8 9 11 12 10 8 6 5 3 4 5 5 2 0 0 0 0 1 1 0 1 1 1 1 2 3 3 2 1 0 0 0 1 1
10 11 11 11 12 11 10 9 8 7 8 10 10 8 6 4 2 1 2 5 4 1 0 0 0 0 0 1 1 0 0 0 1 2 3 3 2 1 0 0 0 0 0
10 9 8 10 11 10 10 10 9 8 9 9 9 8 6 3 1 0 1 3 2 0 0 0 0 0 0 1 1 0 0 0 1 2 3 3 2 1 0 0 0 0 0
9 7 7 9 10 10 11 12 12 11 10 10 8 6 4 3 1 0 0 1 0 0 0 0 0 0 0 1 1 0 0 0 0 1 1 1 1 0 0 0 0 0 0
7 6 7 9 10 11 12 14 14 12 11 9 7 5 3 2 1 0 0 0 0 0 0 0 0 0 0 0 0 0 0 0 0 0 0 0 0 0 0 0 0 0 0
6 6 7 8 10 10 12 14 13 12 9 8 6 4 3 2 1 0 0 0 0 0 0 0 0 0 0 0 0 0 0 0 0 0 0 0 0 0 0 0 0 0 0
8 8 9 9 9 10 11 11 11 10 8 6 4 3 3 2 1 0 0 0 0 0 0 0 0 0 0 0 0 0 0 0 0 0 0 0 0 1 1 1 1 1 1
10 10 10 9 9 9 10 10 9 8 6 4 3 1 1 1 1 0 0 0 0 0 0 0 0 0 0 0 0 0 0 0 0 0 0 0 0 1 2 2 1 2 2
10 10 10 9 10 10 10 9 9 7 5 3 2 1 0 0 0 0 0 0 0 0 0 0 0 0 0 0 0 0 0 0 0 0 0 0 0 1 2 1 1 2 2
10 10 9 9 9 9 9 8 6 4 3 2 2 1 0 0 0 0 0 0 0 0 0 0 0 0 0 0 0 0 0 0 0 0 0 0 0 0 0 1 1 1 1
12 11 10 8 7 7 6 4 3 2 1 1 1 0 0 0 0 0 0 0 0 0 0 0 0 0 0 0 0 0 0 0 0 0 0 0 0 0 0 0 1 1 0
12 11 9 7 6 5 3 2 1 0 0 0 0 0 0 0 0 0 0 0 0 0 0 0 0 0 0 0 0 0 0 0 0 0 0 0 0 0 0 0 0 0 0
10 9 8 7 5 4 2 1 0 0 0 0 0 0 0 0 0 0 0 0 0 0 0 0 0 0 0 0 0 0 0 0 0 0 0 0 0 0 0 0 0 0 0
8 7 6 6 4 2 1 0 0 0 0 0 0 0 0 0 0 0 0 0 0 0 0 0 0 0 0 0 0 0 0 0 0 0 0 0 0 0 0 0 0 0 0
7 5 3 3 2 1 0 0 0 0 0 0 0 0 0 0 0 0 0 0 0 0 0 0 0 0 0 0 0 0 0 0 0 0 0 0 0 0 0 0 0 0 0
6 3 1 1 1 0 0 0 0 0 0 0 0 0 0 0 0 0 0 0 0 0 0 0 0 0 0 0 0 0 0 0 0 0 0 0 0 0 0 0 0 0 0
6 4 1 0 0 0 0 0 0 0 0 0 0 0 0 0 0 0 0 0 0 0 0 0 0 0 0 0 0 0 0 0 0 0 0 0 0 0 0 0 0 0 0
5 3 1 0 0 0 0 0 0 0 0 0 0 0 0 0 0 0 0 0 0 0 0 0 0 0 0 1 1 1 0 0 0 0 0 0 0 0 0 0 0 0 0
2 2 1 0 0 0 0 0 0 0 0 0 0 0 0 0 0 0 0 0 0 0 0 0 1 1 1 2 2 2 1 0 0 0 0 0 0 0 0 0 0 0 0
0 0 0 0 0 0 0 0 0 0 0 0 0 0 0 0 0 0 0 0 0 0 1 1 2 2 3 3 3 2 1 0 0 0 0 0 0 0 0 0 0 0 0
0 0 0 0 0 0 0 0 0 0 0 0 0 0 0 0 0 0 0 0 0 1 2 2 3 3 3 3 3 1 0 0 0 0 0 0 0 0 0 0 0 0 0
Wind_Speed
6 5 4 4 4 4 3 3 3 2 3 3 3 3 3 2 2 1 1 1 1 1 1 1 1 2 1 1 1 2 1 1 1 0 1 1 0 1 0 1 2 2 3
6 5 5 4 4 4 4 3 3 3 3 3 3 3 3 3 3 2 1 1 1 1 0 1 1 0 0 1 1 1 0 1 2 1 0 1 1 1 1 2 1 1 1
6 6 5 5 4 4 4 3 3 3 3 3 4 4 3 3 2 2 1 1 1 1 1 1 0 0 0 0 1 1 0 1 1 1 1 0 0 0 1 1 1 1 2
6 6 5 5 4 4 4 4 3 3 4 4 3 3 3 3 2 2 2 2 2 1 1 1 1 1 1 0 1 1 1 1 1 2 1 2 1 1 1 1 1 1 1
6 6 5 5 5 4 4 4 4 4 4 4 3 3 3 3 2 1 2 3 2 2 2 2 3 3 4 3 2 1 0 1 1 1 1 1 1 1 1 1 1 1 1
6 6 5 5 5 4 4 4 3 3 3 4 4 4 3 3 4 2 1 2 2 2 2 2 3 4 4 3 4 4 4 1 1 1 0 0 0 1 1 2 1 2 1
6 6 6 6 5 5 4 4 4 4 4 4 3 4 4 5 4 2 1 1 2 2 2 1 2 3 2 2 2 2 1 2 2 2 1 1 1 1 2 2 1 3 2
6 6 6 6 5 5 5 4 4 4 3 3 3 3 3 4 4 2 1 2 2 2 2 2 1 2 3 1 1 2 1 2 1 1 1 2 2 2 3 3 3 4 4
6 6 6 6 5 5 5 5 4 4 3 3 3 3 3 4 4 2 1 2 2 2 2 2 1 2 3 1 1 2 1 2 3 3 3 2 2 2 3 3 3 3 2
6 5 6 5 5 5 4 4 4 3 3 3 3 3 3 3 5 3 2 2 2 2 3 3 4 2 2 0 1 1 1 0 1 1 1 2 3 3 3 3 3 4 3
5 5 5 5 5 4 4 3 4 4 4 3 3 3 3 3 5 4 2 2 1 1 1 2 3 4 2 0 2 1 1 2 2 2 2 1 1 1 2 1 2 3 4
5 5 5 5 5 4 4 4 4 4 5 4 4 3 3 4 4 5 3 2 3 1 0 1 4 5 2 1 1 0 2 4 3 2 1 1 1 1 0 1 2 3 3
5 5 5 5 4 4 4 5 5 5 4 4 4 3 3 3 5 7 6 4 3 2 1 4 3 3 3 3 3 3 4 3 2 2 1 1 1 1 1 1 2 2 3
5 4 4 4 4 4 3 4 4 4 4 3 3 3 3 3 3 3 4 5 5 4 2 4 5 5 4 2 3 4 3 2 2 3 2 2 1 1 2 2 2 2 3
5 4 4 4 3 3 3 1 2 1 1 2 2 3 3 3 2 3 1 2 1 1 1 2 3 3 3 3 2 2 2 2 2 2 3 2 2 2 2 2 3 3 4
5 5 4 3 3 3 3 3 3 1 3 2 0 1 1 2 4 4 3 2 2 2 3 3 3 3 3 2 2 2 2 2 2 3 3 3 3 3 3 3 3 4 4
4 4 3 3 3 3 3 3 3 3 2 2 2 3 3 4 4 5 4 4 4 5 5 3 3 3 3 2 2 2 2 2 2 3 3 3 3 3 3 3 3 4 4
4 3 3 3 3 3 3 3 3 3 3 3 4 5 5 6 5 5 6 5 5 6 4 3 3 3 3 3 3 3 3 3 3 3 3 3 4 4 4 4 4 4 5
3 2 2 2 3 3 3 3 3 3 2 2 3 4 5 6 6 5 7 5 4 4 4 3 3 3 3 3 3 3 3 3 3 3 3 3 4 4 4 5 4 4 5
3 2 2 2 3 3 3 3 2 2 2 2 2 2 4 4 4 5 5 5 4 3 3 3 2 2 2 3 3 3 3 3 3 3 3 3 4 4 4 6 5 5 4
3 3 4 4 3 2 2 2 2 2 2 2 2 2 2 3 3 3 3 4 3 3 3 3 2 2 3 3 3 4 4 4 3 3 3 3 4 4 4 4 5 5 5
2 3 3 3 2 2 1 2 2 2 2 2 2 3 5 4 3 2 3 2 2 2 2 2 2 2 2 3 3 4 4 4 3 3 3 4 4 4 4 4 4 5 5
2 3 3 2 2 3 3 2 2 2 2 2 2 2 3 3 2 2 2 2 2 2 2 2 2 2 2 3 3 3 4 3 3 3 4 5 5 4 4 4 5 5 5
2 2 2 2 2 2 2 2 2 2 2 2 2 2 2 2 2 2 2 2 2 2 2 2 2 2 3 3 3 2 2 3 4 4 5 6 5 4 4 5 5 5 5
2 2 2 2 2 2 2 2 2 2 2 2 2 2 2 2 2 2 2 2 2 2 2 2 2 2 2 2 2 2 3 3 4 5 4 5 5 5 5 5 4 4 4
2 2 2 2 2 2 2 2 2 2 2 2 2 2 3 3 3 2 2 2 2 2 2 1 1 1 1 1 2 3 3 2 3 4 5 4 4 4 4 4 5 5 4
Wind_Direction
161 166 162 166 164 167 168 160 161 161 161 157 155 163 160 149 145 165 172 142 153 152 242 212 247 299 287 261 249 243 240 235 236 201 93 106 142 296 106 255 221 202 149
157 157 156 158 161 162 152 151 155 162 163 152 150 153 151 147 147 157 150 124 148 143 98 49 7 301 271 285 266 257 256 254 246 203 189 147 177 216 208 260 263 224 165
156 156 153 154 154 154 147 150 160 161 155 149 151 151 153 144 144 151 147 134 86 79 95 90 54 10 11 36 305 278 240 208 242 203 188 168 201 150 202 220 221 255 230
160 158 157 158 157 159 158 159 164 158 152 156 154 153 150 143 140 142 136 120 113 102 91 82 62 39 18 321 250 272 254 217 201 210 176 177 189 170 212 216 200 194 236
166 164 163 161 157 159 161 162 164 163 155 146 146 142 139 137 105 107 130 122 123 122 108 95 79 64 45 16 355 9 258 244 215 205 181 176 158 199 239 252 263 250 180
165 166 161 157 152 153 157 154 159 161 150 143 136 131 124 93 65 36 317 131 128 117 105 107 117 104 92 86 45 36 21 343 346 321 52 45 312 278 287 270 272 265 237
165 163 158 158 156 158 156 157 162 158 149 146 145 141 123 97 87 74 336 189 126 109 105 102 89 92 117 102 125 146 103 40 359 330 337 322 296 305 286 266 272 288 298
170 167 164 164 162 160 159 158 163 162 154 151 147 136 126 108 109 109 309 194 138 135 128 118 102 95 79 39 95 96 84 74 59 272 332 314 325 323 277 262 256 249 237
179 174 171 170 167 167 165 166 167 163 160 159 153 148 143 124 123 131 262 181 138 136 135 124 129 129 85 3 177 122 102 98 101 83 40 18 20 336 302 275 267 267 269
183 178 171 174 174 176 171 172 164 161 163 165 159 162 159 141 133 145 241 208 149 152 145 136 98 73 103 271 230 172 146 45 36 139 176 212 216 197 217 257 277 279 287
179 177 171 173 175 173 170 171 166 168 163 171 167 168 164 150 145 154 218 254 193 174 153 140 107 108 106 165 264 257 296 287 256 244 220 213 212 213 214 236 286 296 300
171 172 168 172 180 164 165 171 172 172 171 174 174 177 165 157 155 155 175 225 303 251 262 86 99 121 134 184 231 344 279 272 264 255 249 250 274 267 259 283 295 298 304
167 168 167 171 175 166 172 177 179 181 189 182 184 182 171 159 152 161 177 192 224 240 92 79 101 151 189 197 198 231 244 252 272 280 287 294 316 327 283 244 234 248 255
169 167 173 174 175 174 190 192 194 191 193 193 196 191 177 169 165 161 176 182 185 196 192 153 176 200 220 216 202 215 236 268 285 285 295 295 287 253 250 265 267 258 258
176 176 181 184 178 179 182 190 216 187 245 238 214 198 187 185 142 124 199 200 208 144 237 213 208 205 211 206 205 215 235 235 248 267 275 275 273 267 264 263 265 267 268
185 184 185 187 179 187 174 154 73 70 95 90 344 265 161 125 135 149 172 184 180 193 233 230 228 229 234 232 231 226 232 248 258 261 267 275 281 283 278 269 262 263 268
196 189 195 190 186 193 192 186 167 137 139 157 172 177 184 163 160 170 177 181 195 199 222 231 241 247 249 247 247 252 250 252 263 262 266 271 275 276 276 271 268 270 272
200 182 197 194 193 194 194 200 195 186 179 174 174 178 178 181 181 182 178 186 199 207 227 232 239 248 254 257 258 262 262 256 251 260 265 272 273 270 272 274 271 274 276
199 192 204 203 200 197 199 203 199 198 198 182 164 156 176 180 180 185 190 216 219 221 226 231 239 244 252 257 264 266 263 262 263 261 261 268 271 270 272 275 275 267 272
192 170 222 218 204 196 195 198 194 191 195 190 189 167 162 183 192 186 204 227 234 231 232 236 242 249 255 260 259 262 264 262 260 257 256 258 264 270 272 275 278 277 272
192 170 197 220 210 199 194 194 192 201 200 191 183 131 149 208 211 208 213 223 231 232 234 238 236 244 253 260 265 266 267 266 270 275 275 273 273 272 275 274 274 277 281
199 188 197 209 199 195 180 180 198 206 203 200 185 161 172 222 227 217 216 220 226 233 238 245 244 242 251 260 263 268 269 268 270 277 283 279 275 276 278 279 282 282 278
210 192 186 190 185 165 198 203 201 207 205 206 205 201 197 219 225 226 227 224 225 234 241 244 250 255 267 275 280 282 285 289 290 288 282 278 280 282 283 281 281 282 286
210 194 183 178 190 194 200 206 210 215 219 214 217 219 217 214 224 227 228 223 227 231 246 256 266 272 279 287 287 298 341 339 315 292 282 279 279 282 283 281 281 289 290
202 195 191 190 197 203 203 206 207 212 226 228 227 229 226 224 228 227 224 217 225 233 239 250 257 261 275 288 315 12 41 17 338 320 292 281 285 289 290 287 290 293 296
195 188 200 205 200 210 214 218 219 221 229 230 230 236 236 234 227 223 227 224 216 208 226 241 255 273 278 284 40 49 56 13 334 316 301 287 287 295 303 297 297 294 295